Location: Unspecified
(0.0000°N, 0.0000°E)
Time: 08:45:33
(UTC+00:00)

CZ-4C DEB - Pass Details

Date: 11 March 2026
Orbit: 805 x 1381 km, 63.4° (Epoch: 18 April)

Event Time Altitude Azimuth Distance (km) Brightness Sun altitude
Rises 21:19:44 0° 316° (NW) 4,278 ? -47.3°
Reaches altitude 10° 21:22:50 10° 308° (NW) 3,363 ? -48.1°
Enters shadow 21:27:39 29° 277° (W) 2,288 ? -49.3°
